リニア彗星

234P/LINEAR (2009)

English version
Home page
Updated on October 3, 2010

---------------------------------------------------------------------

・ プロフィール

符号 234P/2010 E4
検出日 2010年3月15日
検出光度 19.0等
検出者 R. A. Kowalski (Mount Lemmon)

・ 写真集

・ 軌道要素

Epoch 2010 Jan. 4.0 TT = JDT 2455200.5
T 2009 Dec. 23.47797 TT                                 MPC
q   2.8612970            (2000.0)            P               Q
n   0.13201853     Peri.  358.33458     -0.99943059     -0.03372808
a   3.8198484      Node   179.72709     +0.03280392     -0.97787110
e   0.2509397      Incl.   11.51504     +0.00789873     -0.20647162
P   7.47

・ 光度変化

        m1 = 12.5 + 5 logΔ + 10.0 log r

---------------------------------------------------------------------

軌道要素はM.P.E.C. 2010-F02に掲載されたものです。
光度グラフはComet for Windowsで作成したものです。

---------------------------------------------------------------------

Copyright(C) Seiichi Yoshida (comet@aerith.net). All rights reserved.